Regional Weather Roundup
Issued by NWS

Home | Current Version | Previous Version | Text Only | Print | Product List | Glossary Off
Versions: 1 2 3 4 5 6 7 8 9 10 11 12 13 14 15 16 17 18 19 20 21 22 23 24 25 26 27 28 29 30 31 32 33 34 35 36 37 38 39 40 41 42 43 44 45 46 47 48 49 50

000
ASUS43 KTOP 040859
RWRKS

WEATHER ROUNDUP FOR KANSAS
NATIONAL WEATHER SERVICE GOODLAND KS
400 AM CDT WED MAY 04 2016

NOTE:  "FAIR" INDICATES FEW OR NO CLOUDS BELOW 12,000 FEET WITH NO
SIGNIFICANT WEATHER AND/OR OBSTRUCTIONS TO VISIBILITY.

KSZ001>006-013>018-027>032-041>047-041000-
NORTHWEST KANSAS

CITY           SKY/WX    TMP DP  RH WIND       PRES   REMARKS
GOODLAND       CLEAR     42  34  73 W8        30.15S
HAYS           CLEAR     45  36  70 W7        30.04S
HILL CITY      CLEAR     47  41  80 W10       30.06S
RUSSELL        CLEAR     47  43  86 W8        30.00F
$$

KSZ061>065-074>080-084>089-041000-
SOUTHWEST KANSAS

CITY           SKY/WX    TMP DP  RH WIND       PRES   REMARKS
DODGE CITY     CLEAR     47  41  80 W10       30.09S
ELKHART          N/A     46  35  65 W8          N/A
GARDEN CITY    CLEAR     42  39  89 W9        30.11S
GREAT BEND     CLEAR     46  39  76 W9        30.04S
LIBERAL        CLEAR     45  37  76 W9        30.13S
$$

KSZ066>073-081>083-090>101-041000-
SOUTHEAST KANSAS

CITY           SKY/WX    TMP DP  RH WIND       PRES   REMARKS
CHANUTE        CLEAR     52  45  77 W6        29.93F
COFFEYVILLE    CLEAR     55  45  68 W7        29.95F
HUTCHINSON     CLEAR     46  42  86 NW6       30.00F
MEDICINE LODGE   N/A     46  43  89 NW3       30.04S
NEWTON         CLEAR     50  39  66 W9        30.00S
PARSONS        CLEAR     50  47  89 S3        29.95F
WICHITA INTL   CLEAR     51  43  74 W7        29.99S
WICHITA JABRA  CLEAR     51  45  79 W9        29.98S
WINFIELD       CLEAR     46  43  89 CALM      30.33F
$$

KSZ007>012-019>026-033>040-048>060-102>105-041000-
NORTHEAST KANSAS

CITY           SKY/WX    TMP DP  RH WIND       PRES   REMARKS
CONCORDIA      CLEAR     51  43  74 NW10      29.97R
EMPORIA        CLEAR     53  45  74 W8        29.93F
LAWRENCE       CLEAR     47  44  90 CALM      29.87F
MANHATTAN      CLEAR     50  43  77 SW6       29.92F
OLATHE IND     PTCLDY    54  44  69 SW8       29.87F
OLATHE EXE     PTCLDY    53  43  68 W7        29.86F
SALINA         CLEAR     56  45  66 W10       29.97F
TOPEKA BILLARD CLEAR     54  45  71 W7        29.88F
TOPEKA FORBES  CLEAR     56  45  66 W10       29.88F
$$




USA.gov is the U.S. government's official web portal to all federal, state and local government web resources and services.